Tracking 31023 objects as of 19-Jul-2025
HD Live streaming from Space Station
objects crossing your sky now

FENGYUN 1C DEB

Track FENGYUN 1C DEB now!
10-day predictions


NORAD ID: 31622
Int'l Code: 1999-025CAC
Perigee: 769.4 km
Apogee: 794.7 km
Inclination: 98.8 °
Period: 100.3 minutes
Semi major axis: 7153 km
RCS: 0.0179 m2 (small)
Launch date: May 10, 1999
Source: People's Republic of China (PRC)
Launch site: Taiyaun Space Center, China (TSC)

Note: This is SATELLITE DEBRIS
Your satellite tracking list
Your tracking list is empty




NASA's NSSDC Master Catalog

Two Line Element Set (TLE):
1 31622U 99025CAC 25199.74287586  .00003270  00000-0  11607-2 0  9991
2 31622  98.8180 291.1903 0017685  64.0675  87.1937 14.35049624936629
Source of the keplerian elements: AFSPC